STARLINK-35792, 67092

Orbit data source: Space-Track

STARLINK-35792, 67092 is a payload satellite owned by SpaceX/Seattle (US) in LEO that was launched on Sun, 14 Dec 2025 UTC via an FALCON 9 launch vehicle from the Air Force Western Test Range (AFWTR). Payload-class satellites include a variety of spacecraft equipped with specific instruments for various scientific and technological missions. These include communications satellites like Starlink; space stations such as the ISS; scientific satellites like the Hubble; Earth observation satellites from companies like Planet Labs, Umbra, and HawkEye 360; GPS; miniature CubeSats for education and research; and military/defense satellites.

Loading next visibility...
Identifier
67092, 2025-298T
Orbit
LEO
Country
Flag of USUS
Related business
Manufacturer
SpaceX/Seattle
Mission
Operational Commercial Communications
Bus & Motor
STARLINK V2MO, Unknown motor
Mass
575 kg wet, ~530 kg dry
Launch date (UTC)
2025-12-14 (6 months ago)
Launch vehicle
FALCON 9
Launch site
Air Force Western Test Range (AFWTR)
Object type
Payload
Rocket body
Debris
Shape & HBR
Box + 2 Pan, 17.7 m
Radar Cross Section
36.964 m², Large (>1 m²)

Expand to show TLE details & history
Last TLE update: 15 hours ago

TLE from 15 hours ago
0 STARLINK-35792
1 67092U 25298T   26171.22499152  .00003645  00000-0  31303-3 0  9992
2 67092  70.0013 116.0306 0002833 268.6018  91.4817 14.98343622 28575
Epoch: 2026-06-20T05:23Z
TLE epoch observation values (Epoch: 2026-06-20T05:23:59.267Z)
Latitude
0.00003°
Longitude
126.59099°
Altitude
574.489 km
Speed
7.574 km/s
True Right ascension
07h 44m 07s
True Declination
0° 00' 00"
Sunlit
Object was in daylight at epoch
Visualization orbit readout
Latitude
Unknown
Longitude
Unknown
Altitude
Unknown
Speed
Unknown
Apparent Right ascension
Unknown
Apparent Declination
Unknown
Sunlit
N/A
Visualization observer readout
Local Sidereal Time
07:24:10
Azimuth
Unknown
Elevation
Unknown
Doppler factor
Unknown
Orbital elements
Apogee altitude
571.93 km
Perigee altitude
567.993 km
Semi-major axis
6,948.099 km
Eccentricity
0.00028
Inclination
70.0013°
RAAN
116.0306°
Arg. of periapsis
268.6018°
True anomaly
91.51415°
Mean anomaly
91.4817°
Eccentric anomaly
91.49793°
Mean motion
3.74752 °/min
Orbital period
96.06 mins
BSTAR
0.00031303
Loading maneuver chart data...
Computing Atmospheric mass density...
Loading historical data...
Loading historical data...
Loading historical data...
Loading historical data...
Loading historical data...
Loading historical data...
Loading historical data...

Documentation

Showing up to 5 results
|